<?xml version="1.0"?>
<gpx xmlns="http://www.topografix.com/GPX/1/1" xmlns:xsi="http://www.w3.org/2001/XMLSchema-instance" version="1.1" creator="GPX RubyGem 1.0.0 -- http://dougfales.github.io/gpx/" xsi:schemaLocation="http://www.topografix.com/GPX/1/1 http://www.topografix.com/GPX/1/1/gpx.xsd">
  <metadata>
    <name/>
    <time>2026-05-07T08:37:16+00:00</time>
    <bound minlat="90.0" minlon="180.0" maxlat="-90.0" maxlon="-180.0"/>
  </metadata>
  <trk>
    <name/>
    <trkseg>
      <trkpt lat="46.890771" lon="10.503652">
        <time>1970-01-01T00:00:00+00:00</time>
        <ele>1368.0</ele>
      </trkpt>
      <trkpt lat="46.89082" lon="10.503431">
        <time>1970-01-01T00:00:00+00:00</time>
        <ele>1368.0</ele>
      </trkpt>
      <trkpt lat="46.891017" lon="10.503551">
        <time>1970-01-01T00:00:00+00:00</time>
        <ele>1371.0</ele>
      </trkpt>
      <trkpt lat="46.891107" lon="10.503595">
        <time>1970-01-01T00:00:00+00:00</time>
        <ele>1372.0</ele>
      </trkpt>
      <trkpt lat="46.891184" lon="10.503595">
        <time>1970-01-01T00:00:00+00:00</time>
        <ele>1373.0</ele>
      </trkpt>
      <trkpt lat="46.891455" lon="10.503676">
        <time>1970-01-01T00:00:00+00:00</time>
        <ele>1375.0</ele>
      </trkpt>
      <trkpt lat="46.891522" lon="10.503694">
        <time>1970-01-01T00:00:00+00:00</time>
        <ele>1376.0</ele>
      </trkpt>
      <trkpt lat="46.891866" lon="10.503682">
        <time>1970-01-01T00:00:00+00:00</time>
        <ele>1381.0</ele>
      </trkpt>
      <trkpt lat="46.892078" lon="10.503743">
        <time>1970-01-01T00:00:00+00:00</time>
        <ele>1385.0</ele>
      </trkpt>
      <trkpt lat="46.892204" lon="10.503814">
        <time>1970-01-01T00:00:00+00:00</time>
        <ele>1387.0</ele>
      </trkpt>
      <trkpt lat="46.892382" lon="10.503959">
        <time>1970-01-01T00:00:00+00:00</time>
        <ele>1390.0</ele>
      </trkpt>
      <trkpt lat="46.892567" lon="10.503991">
        <time>1970-01-01T00:00:00+00:00</time>
        <ele>1391.0</ele>
      </trkpt>
      <trkpt lat="46.892722" lon="10.504401">
        <time>1970-01-01T00:00:00+00:00</time>
        <ele>1397.0</ele>
      </trkpt>
      <trkpt lat="46.892744" lon="10.504516">
        <time>1970-01-01T00:00:00+00:00</time>
        <ele>1398.0</ele>
      </trkpt>
      <trkpt lat="46.892737" lon="10.504615">
        <time>1970-01-01T00:00:00+00:00</time>
        <ele>1399.0</ele>
      </trkpt>
      <trkpt lat="46.892896" lon="10.504681">
        <time>1970-01-01T00:00:00+00:00</time>
        <ele>1399.0</ele>
      </trkpt>
      <trkpt lat="46.89299" lon="10.504643">
        <time>1970-01-01T00:00:00+00:00</time>
        <ele>1398.0</ele>
      </trkpt>
      <trkpt lat="46.893083" lon="10.504642">
        <time>1970-01-01T00:00:00+00:00</time>
        <ele>1397.0</ele>
      </trkpt>
      <trkpt lat="46.89314" lon="10.504642">
        <time>1970-01-01T00:00:00+00:00</time>
        <ele>1398.0</ele>
      </trkpt>
      <trkpt lat="46.893382" lon="10.50464">
        <time>1970-01-01T00:00:00+00:00</time>
        <ele>1399.0</ele>
      </trkpt>
      <trkpt lat="46.893394" lon="10.504741">
        <time>1970-01-01T00:00:00+00:00</time>
        <ele>1400.0</ele>
      </trkpt>
      <trkpt lat="46.893491" lon="10.505089">
        <time>1970-01-01T00:00:00+00:00</time>
        <ele>1403.0</ele>
      </trkpt>
      <trkpt lat="46.893512" lon="10.505193">
        <time>1970-01-01T00:00:00+00:00</time>
        <ele>1404.0</ele>
      </trkpt>
      <trkpt lat="46.893562" lon="10.5056">
        <time>1970-01-01T00:00:00+00:00</time>
        <ele>1409.0</ele>
      </trkpt>
      <trkpt lat="46.893552" lon="10.505998">
        <time>1970-01-01T00:00:00+00:00</time>
        <ele>1415.0</ele>
      </trkpt>
      <trkpt lat="46.893549" lon="10.506072">
        <time>1970-01-01T00:00:00+00:00</time>
        <ele>1416.0</ele>
      </trkpt>
      <trkpt lat="46.893538" lon="10.50648">
        <time>1970-01-01T00:00:00+00:00</time>
        <ele>1421.0</ele>
      </trkpt>
      <trkpt lat="46.893565" lon="10.506598">
        <time>1970-01-01T00:00:00+00:00</time>
        <ele>1423.0</ele>
      </trkpt>
      <trkpt lat="46.893715" lon="10.506635">
        <time>1970-01-01T00:00:00+00:00</time>
        <ele>1425.0</ele>
      </trkpt>
      <trkpt lat="46.893953" lon="10.506764">
        <time>1970-01-01T00:00:00+00:00</time>
        <ele>1431.0</ele>
      </trkpt>
      <trkpt lat="46.894075" lon="10.506868">
        <time>1970-01-01T00:00:00+00:00</time>
        <ele>1436.0</ele>
      </trkpt>
      <trkpt lat="46.894231" lon="10.507063">
        <time>1970-01-01T00:00:00+00:00</time>
        <ele>1445.0</ele>
      </trkpt>
      <trkpt lat="46.894349" lon="10.507143">
        <time>1970-01-01T00:00:00+00:00</time>
        <ele>1449.0</ele>
      </trkpt>
      <trkpt lat="46.894566" lon="10.507601">
        <time>1970-01-01T00:00:00+00:00</time>
        <ele>1471.0</ele>
      </trkpt>
      <trkpt lat="46.894571" lon="10.507734">
        <time>1970-01-01T00:00:00+00:00</time>
        <ele>1477.0</ele>
      </trkpt>
      <trkpt lat="46.894636" lon="10.507785">
        <time>1970-01-01T00:00:00+00:00</time>
        <ele>1478.0</ele>
      </trkpt>
      <trkpt lat="46.895051" lon="10.507626">
        <time>1970-01-01T00:00:00+00:00</time>
        <ele>1475.0</ele>
      </trkpt>
      <trkpt lat="46.895199" lon="10.507675">
        <time>1970-01-01T00:00:00+00:00</time>
        <ele>1479.0</ele>
      </trkpt>
      <trkpt lat="46.895494" lon="10.507719">
        <time>1970-01-01T00:00:00+00:00</time>
        <ele>1488.0</ele>
      </trkpt>
      <trkpt lat="46.896006" lon="10.507538">
        <time>1970-01-01T00:00:00+00:00</time>
        <ele>1501.0</ele>
      </trkpt>
      <trkpt lat="46.896319" lon="10.507326">
        <time>1970-01-01T00:00:00+00:00</time>
        <ele>1505.0</ele>
      </trkpt>
      <trkpt lat="46.89661" lon="10.506948">
        <time>1970-01-01T00:00:00+00:00</time>
        <ele>1508.0</ele>
      </trkpt>
      <trkpt lat="46.897625" lon="10.506273">
        <time>1970-01-01T00:00:00+00:00</time>
        <ele>1525.0</ele>
      </trkpt>
      <trkpt lat="46.898085" lon="10.505838">
        <time>1970-01-01T00:00:00+00:00</time>
        <ele>1530.0</ele>
      </trkpt>
      <trkpt lat="46.898149" lon="10.505839">
        <time>1970-01-01T00:00:00+00:00</time>
        <ele>1533.0</ele>
      </trkpt>
      <trkpt lat="46.898207" lon="10.505775">
        <time>1970-01-01T00:00:00+00:00</time>
        <ele>1534.0</ele>
      </trkpt>
      <trkpt lat="46.898355" lon="10.505741">
        <time>1970-01-01T00:00:00+00:00</time>
        <ele>1538.0</ele>
      </trkpt>
      <trkpt lat="46.898621" lon="10.505717">
        <time>1970-01-01T00:00:00+00:00</time>
        <ele>1546.0</ele>
      </trkpt>
      <trkpt lat="46.898843" lon="10.505765">
        <time>1970-01-01T00:00:00+00:00</time>
        <ele>1554.0</ele>
      </trkpt>
      <trkpt lat="46.899132" lon="10.505755">
        <time>1970-01-01T00:00:00+00:00</time>
        <ele>1560.0</ele>
      </trkpt>
      <trkpt lat="46.899407" lon="10.505819">
        <time>1970-01-01T00:00:00+00:00</time>
        <ele>1568.0</ele>
      </trkpt>
      <trkpt lat="46.900008" lon="10.5057">
        <time>1970-01-01T00:00:00+00:00</time>
        <ele>1587.0</ele>
      </trkpt>
      <trkpt lat="46.900456" lon="10.505724">
        <time>1970-01-01T00:00:00+00:00</time>
        <ele>1596.0</ele>
      </trkpt>
      <trkpt lat="46.900879" lon="10.505794">
        <time>1970-01-01T00:00:00+00:00</time>
        <ele>1599.0</ele>
      </trkpt>
      <trkpt lat="46.90121" lon="10.505883">
        <time>1970-01-01T00:00:00+00:00</time>
        <ele>1606.0</ele>
      </trkpt>
      <trkpt lat="46.90155" lon="10.506005">
        <time>1970-01-01T00:00:00+00:00</time>
        <ele>1610.0</ele>
      </trkpt>
      <trkpt lat="46.901873" lon="10.506155">
        <time>1970-01-01T00:00:00+00:00</time>
        <ele>1615.0</ele>
      </trkpt>
      <trkpt lat="46.902272" lon="10.506421">
        <time>1970-01-01T00:00:00+00:00</time>
        <ele>1621.0</ele>
      </trkpt>
      <trkpt lat="46.902445" lon="10.506404">
        <time>1970-01-01T00:00:00+00:00</time>
        <ele>1619.0</ele>
      </trkpt>
      <trkpt lat="46.902894" lon="10.506756">
        <time>1970-01-01T00:00:00+00:00</time>
        <ele>1630.0</ele>
      </trkpt>
      <trkpt lat="46.90317" lon="10.507124">
        <time>1970-01-01T00:00:00+00:00</time>
        <ele>1649.0</ele>
      </trkpt>
      <trkpt lat="46.903259" lon="10.507135">
        <time>1970-01-01T00:00:00+00:00</time>
        <ele>1648.0</ele>
      </trkpt>
      <trkpt lat="46.903424" lon="10.506994">
        <time>1970-01-01T00:00:00+00:00</time>
        <ele>1638.0</ele>
      </trkpt>
      <trkpt lat="46.903685" lon="10.506972">
        <time>1970-01-01T00:00:00+00:00</time>
        <ele>1640.0</ele>
      </trkpt>
      <trkpt lat="46.904238" lon="10.507206">
        <time>1970-01-01T00:00:00+00:00</time>
        <ele>1656.0</ele>
      </trkpt>
      <trkpt lat="46.904444" lon="10.507329">
        <time>1970-01-01T00:00:00+00:00</time>
        <ele>1662.0</ele>
      </trkpt>
      <trkpt lat="46.904836" lon="10.507475">
        <time>1970-01-01T00:00:00+00:00</time>
        <ele>1666.0</ele>
      </trkpt>
      <trkpt lat="46.904933" lon="10.507584">
        <time>1970-01-01T00:00:00+00:00</time>
        <ele>1668.0</ele>
      </trkpt>
      <trkpt lat="46.905243" lon="10.508163">
        <time>1970-01-01T00:00:00+00:00</time>
        <ele>1680.0</ele>
      </trkpt>
      <trkpt lat="46.905426" lon="10.508396">
        <time>1970-01-01T00:00:00+00:00</time>
        <ele>1678.0</ele>
      </trkpt>
      <trkpt lat="46.905556" lon="10.508287">
        <time>1970-01-01T00:00:00+00:00</time>
        <ele>1675.0</ele>
      </trkpt>
      <trkpt lat="46.905654" lon="10.507986">
        <time>1970-01-01T00:00:00+00:00</time>
        <ele>1671.0</ele>
      </trkpt>
      <trkpt lat="46.906034" lon="10.50763">
        <time>1970-01-01T00:00:00+00:00</time>
        <ele>1679.0</ele>
      </trkpt>
      <trkpt lat="46.905935" lon="10.507767">
        <time>1970-01-01T00:00:00+00:00</time>
        <ele>1678.0</ele>
      </trkpt>
      <trkpt lat="46.905887" lon="10.507886">
        <time>1970-01-01T00:00:00+00:00</time>
        <ele>1679.0</ele>
      </trkpt>
      <trkpt lat="46.905894" lon="10.507979">
        <time>1970-01-01T00:00:00+00:00</time>
        <ele>1681.0</ele>
      </trkpt>
      <trkpt lat="46.905939" lon="10.508001">
        <time>1970-01-01T00:00:00+00:00</time>
        <ele>1684.0</ele>
      </trkpt>
      <trkpt lat="46.90599" lon="10.507968">
        <time>1970-01-01T00:00:00+00:00</time>
        <ele>1686.0</ele>
      </trkpt>
      <trkpt lat="46.906062" lon="10.50788">
        <time>1970-01-01T00:00:00+00:00</time>
        <ele>1685.0</ele>
      </trkpt>
      <trkpt lat="46.906167" lon="10.507854">
        <time>1970-01-01T00:00:00+00:00</time>
        <ele>1687.0</ele>
      </trkpt>
      <trkpt lat="46.906393" lon="10.507859">
        <time>1970-01-01T00:00:00+00:00</time>
        <ele>1694.0</ele>
      </trkpt>
      <trkpt lat="46.906549" lon="10.50789">
        <time>1970-01-01T00:00:00+00:00</time>
        <ele>1700.0</ele>
      </trkpt>
      <trkpt lat="46.90677" lon="10.507875">
        <time>1970-01-01T00:00:00+00:00</time>
        <ele>1703.0</ele>
      </trkpt>
      <trkpt lat="46.907018" lon="10.50806">
        <time>1970-01-01T00:00:00+00:00</time>
        <ele>1707.0</ele>
      </trkpt>
      <trkpt lat="46.907197" lon="10.508109">
        <time>1970-01-01T00:00:00+00:00</time>
        <ele>1708.0</ele>
      </trkpt>
      <trkpt lat="46.90805" lon="10.508961">
        <time>1970-01-01T00:00:00+00:00</time>
        <ele>1728.0</ele>
      </trkpt>
      <trkpt lat="46.908468" lon="10.509327">
        <time>1970-01-01T00:00:00+00:00</time>
        <ele>1732.0</ele>
      </trkpt>
      <trkpt lat="46.908526" lon="10.509332">
        <time>1970-01-01T00:00:00+00:00</time>
        <ele>1732.0</ele>
      </trkpt>
      <trkpt lat="46.908567" lon="10.509297">
        <time>1970-01-01T00:00:00+00:00</time>
        <ele>1730.0</ele>
      </trkpt>
      <trkpt lat="46.908583" lon="10.509202">
        <time>1970-01-01T00:00:00+00:00</time>
        <ele>1729.0</ele>
      </trkpt>
      <trkpt lat="46.908569" lon="10.508777">
        <time>1970-01-01T00:00:00+00:00</time>
        <ele>1725.0</ele>
      </trkpt>
      <trkpt lat="46.90858" lon="10.508665">
        <time>1970-01-01T00:00:00+00:00</time>
        <ele>1724.0</ele>
      </trkpt>
      <trkpt lat="46.908612" lon="10.508592">
        <time>1970-01-01T00:00:00+00:00</time>
        <ele>1725.0</ele>
      </trkpt>
      <trkpt lat="46.908666" lon="10.508579">
        <time>1970-01-01T00:00:00+00:00</time>
        <ele>1727.0</ele>
      </trkpt>
      <trkpt lat="46.908855" lon="10.508685">
        <time>1970-01-01T00:00:00+00:00</time>
        <ele>1735.0</ele>
      </trkpt>
      <trkpt lat="46.909187" lon="10.508645">
        <time>1970-01-01T00:00:00+00:00</time>
        <ele>1741.0</ele>
      </trkpt>
      <trkpt lat="46.909628" lon="10.508691">
        <time>1970-01-01T00:00:00+00:00</time>
        <ele>1748.0</ele>
      </trkpt>
      <trkpt lat="46.909744" lon="10.508725">
        <time>1970-01-01T00:00:00+00:00</time>
        <ele>1752.0</ele>
      </trkpt>
      <trkpt lat="46.909992" lon="10.508853">
        <time>1970-01-01T00:00:00+00:00</time>
        <ele>1760.0</ele>
      </trkpt>
      <trkpt lat="46.910108" lon="10.508878">
        <time>1970-01-01T00:00:00+00:00</time>
        <ele>1761.0</ele>
      </trkpt>
      <trkpt lat="46.910417" lon="10.508807">
        <time>1970-01-01T00:00:00+00:00</time>
        <ele>1763.0</ele>
      </trkpt>
      <trkpt lat="46.910552" lon="10.508696">
        <time>1970-01-01T00:00:00+00:00</time>
        <ele>1764.0</ele>
      </trkpt>
      <trkpt lat="46.910665" lon="10.508529">
        <time>1970-01-01T00:00:00+00:00</time>
        <ele>1765.0</ele>
      </trkpt>
      <trkpt lat="46.910734" lon="10.50846">
        <time>1970-01-01T00:00:00+00:00</time>
        <ele>1766.0</ele>
      </trkpt>
      <trkpt lat="46.910789" lon="10.508449">
        <time>1970-01-01T00:00:00+00:00</time>
        <ele>1767.0</ele>
      </trkpt>
      <trkpt lat="46.910849" lon="10.508492">
        <time>1970-01-01T00:00:00+00:00</time>
        <ele>1769.0</ele>
      </trkpt>
      <trkpt lat="46.910906" lon="10.508574">
        <time>1970-01-01T00:00:00+00:00</time>
        <ele>1772.0</ele>
      </trkpt>
      <trkpt lat="46.91095" lon="10.508679">
        <time>1970-01-01T00:00:00+00:00</time>
        <ele>1775.0</ele>
      </trkpt>
      <trkpt lat="46.91097" lon="10.508817">
        <time>1970-01-01T00:00:00+00:00</time>
        <ele>1778.0</ele>
      </trkpt>
      <trkpt lat="46.910952" lon="10.509355">
        <time>1970-01-01T00:00:00+00:00</time>
        <ele>1787.0</ele>
      </trkpt>
      <trkpt lat="46.910963" lon="10.50951">
        <time>1970-01-01T00:00:00+00:00</time>
        <ele>1789.0</ele>
      </trkpt>
      <trkpt lat="46.911002" lon="10.509649">
        <time>1970-01-01T00:00:00+00:00</time>
        <ele>1792.0</ele>
      </trkpt>
      <trkpt lat="46.911323" lon="10.510137">
        <time>1970-01-01T00:00:00+00:00</time>
        <ele>1802.0</ele>
      </trkpt>
      <trkpt lat="46.911841" lon="10.510792">
        <time>1970-01-01T00:00:00+00:00</time>
        <ele>1812.0</ele>
      </trkpt>
      <trkpt lat="46.91193" lon="10.510939">
        <time>1970-01-01T00:00:00+00:00</time>
        <ele>1812.0</ele>
      </trkpt>
      <trkpt lat="46.911922" lon="10.511114">
        <time>1970-01-01T00:00:00+00:00</time>
        <ele>1817.0</ele>
      </trkpt>
      <trkpt lat="46.911958" lon="10.511307">
        <time>1970-01-01T00:00:00+00:00</time>
        <ele>1820.0</ele>
      </trkpt>
      <trkpt lat="46.912019" lon="10.511527">
        <time>1970-01-01T00:00:00+00:00</time>
        <ele>1827.0</ele>
      </trkpt>
      <trkpt lat="46.912118" lon="10.511692">
        <time>1970-01-01T00:00:00+00:00</time>
        <ele>1830.0</ele>
      </trkpt>
      <trkpt lat="46.912595" lon="10.512208">
        <time>1970-01-01T00:00:00+00:00</time>
        <ele>1829.0</ele>
      </trkpt>
      <trkpt lat="46.913287" lon="10.513074">
        <time>1970-01-01T00:00:00+00:00</time>
        <ele>1837.0</ele>
      </trkpt>
      <trkpt lat="46.913875" lon="10.51443">
        <time>1970-01-01T00:00:00+00:00</time>
        <ele>1873.0</ele>
      </trkpt>
      <trkpt lat="46.914194" lon="10.514946">
        <time>1970-01-01T00:00:00+00:00</time>
        <ele>1888.0</ele>
      </trkpt>
      <trkpt lat="46.914296" lon="10.515065">
        <time>1970-01-01T00:00:00+00:00</time>
        <ele>1893.0</ele>
      </trkpt>
      <trkpt lat="46.914491" lon="10.515508">
        <time>1970-01-01T00:00:00+00:00</time>
        <ele>1900.0</ele>
      </trkpt>
      <trkpt lat="46.914781" lon="10.516318">
        <time>1970-01-01T00:00:00+00:00</time>
        <ele>1896.0</ele>
      </trkpt>
      <trkpt lat="46.914902" lon="10.516767">
        <time>1970-01-01T00:00:00+00:00</time>
        <ele>1897.0</ele>
      </trkpt>
      <trkpt lat="46.914947" lon="10.517003">
        <time>1970-01-01T00:00:00+00:00</time>
        <ele>1896.0</ele>
      </trkpt>
      <trkpt lat="46.914921" lon="10.517294">
        <time>1970-01-01T00:00:00+00:00</time>
        <ele>1905.0</ele>
      </trkpt>
      <trkpt lat="46.915004" lon="10.517566">
        <time>1970-01-01T00:00:00+00:00</time>
        <ele>1904.0</ele>
      </trkpt>
      <trkpt lat="46.91514" lon="10.517843">
        <time>1970-01-01T00:00:00+00:00</time>
        <ele>1901.0</ele>
      </trkpt>
      <trkpt lat="46.915303" lon="10.519123">
        <time>1970-01-01T00:00:00+00:00</time>
        <ele>1919.0</ele>
      </trkpt>
      <trkpt lat="46.91552" lon="10.519622">
        <time>1970-01-01T00:00:00+00:00</time>
        <ele>1920.0</ele>
      </trkpt>
      <trkpt lat="46.915765" lon="10.520021">
        <time>1970-01-01T00:00:00+00:00</time>
        <ele>1918.0</ele>
      </trkpt>
      <trkpt lat="46.915813" lon="10.520258">
        <time>1970-01-01T00:00:00+00:00</time>
        <ele>1919.0</ele>
      </trkpt>
      <trkpt lat="46.915777" lon="10.521147">
        <time>1970-01-01T00:00:00+00:00</time>
        <ele>1924.0</ele>
      </trkpt>
      <trkpt lat="46.915956" lon="10.521153">
        <time>1970-01-01T00:00:00+00:00</time>
        <ele>1915.0</ele>
      </trkpt>
      <trkpt lat="46.916143" lon="10.521188">
        <time>1970-01-01T00:00:00+00:00</time>
        <ele>1910.0</ele>
      </trkpt>
      <trkpt lat="46.916194" lon="10.521367">
        <time>1970-01-01T00:00:00+00:00</time>
        <ele>1914.0</ele>
      </trkpt>
      <trkpt lat="46.916303" lon="10.521502">
        <time>1970-01-01T00:00:00+00:00</time>
        <ele>1918.0</ele>
      </trkpt>
      <trkpt lat="46.916391" lon="10.521534">
        <time>1970-01-01T00:00:00+00:00</time>
        <ele>1918.0</ele>
      </trkpt>
      <trkpt lat="46.916572" lon="10.521405">
        <time>1970-01-01T00:00:00+00:00</time>
        <ele>1914.0</ele>
      </trkpt>
      <trkpt lat="46.917006" lon="10.521171">
        <time>1970-01-01T00:00:00+00:00</time>
        <ele>1918.0</ele>
      </trkpt>
      <trkpt lat="46.917108" lon="10.521172">
        <time>1970-01-01T00:00:00+00:00</time>
        <ele>1920.0</ele>
      </trkpt>
      <trkpt lat="46.91746" lon="10.521785">
        <time>1970-01-01T00:00:00+00:00</time>
        <ele>1933.0</ele>
      </trkpt>
      <trkpt lat="46.917555" lon="10.521922">
        <time>1970-01-01T00:00:00+00:00</time>
        <ele>1936.0</ele>
      </trkpt>
      <trkpt lat="46.917685" lon="10.522026">
        <time>1970-01-01T00:00:00+00:00</time>
        <ele>1938.0</ele>
      </trkpt>
      <trkpt lat="46.917845" lon="10.52206">
        <time>1970-01-01T00:00:00+00:00</time>
        <ele>1938.0</ele>
      </trkpt>
      <trkpt lat="46.917965" lon="10.522112">
        <time>1970-01-01T00:00:00+00:00</time>
        <ele>1938.0</ele>
      </trkpt>
      <trkpt lat="46.918017" lon="10.522258">
        <time>1970-01-01T00:00:00+00:00</time>
        <ele>1941.0</ele>
      </trkpt>
      <trkpt lat="46.918009" lon="10.522505">
        <time>1970-01-01T00:00:00+00:00</time>
        <ele>1944.0</ele>
      </trkpt>
      <trkpt lat="46.917965" lon="10.522982">
        <time>1970-01-01T00:00:00+00:00</time>
        <ele>1953.0</ele>
      </trkpt>
      <trkpt lat="46.917997" lon="10.523272">
        <time>1970-01-01T00:00:00+00:00</time>
        <ele>1958.0</ele>
      </trkpt>
      <trkpt lat="46.918141" lon="10.523684">
        <time>1970-01-01T00:00:00+00:00</time>
        <ele>1963.0</ele>
      </trkpt>
      <trkpt lat="46.918267" lon="10.523903">
        <time>1970-01-01T00:00:00+00:00</time>
        <ele>1965.0</ele>
      </trkpt>
      <trkpt lat="46.918298" lon="10.523986">
        <time>1970-01-01T00:00:00+00:00</time>
        <ele>1966.0</ele>
      </trkpt>
      <trkpt lat="46.918291" lon="10.524069">
        <time>1970-01-01T00:00:00+00:00</time>
        <ele>1967.0</ele>
      </trkpt>
      <trkpt lat="46.918249" lon="10.524115">
        <time>1970-01-01T00:00:00+00:00</time>
        <ele>1968.0</ele>
      </trkpt>
      <trkpt lat="46.918123" lon="10.524061">
        <time>1970-01-01T00:00:00+00:00</time>
        <ele>1970.0</ele>
      </trkpt>
      <trkpt lat="46.917721" lon="10.524056">
        <time>1970-01-01T00:00:00+00:00</time>
        <ele>1979.0</ele>
      </trkpt>
      <trkpt lat="46.917636" lon="10.524015">
        <time>1970-01-01T00:00:00+00:00</time>
        <ele>1981.0</ele>
      </trkpt>
      <trkpt lat="46.9175" lon="10.523886">
        <time>1970-01-01T00:00:00+00:00</time>
        <ele>1983.0</ele>
      </trkpt>
      <trkpt lat="46.917445" lon="10.523937">
        <time>1970-01-01T00:00:00+00:00</time>
        <ele>1986.0</ele>
      </trkpt>
      <trkpt lat="46.917491" lon="10.524315">
        <time>1970-01-01T00:00:00+00:00</time>
        <ele>1992.0</ele>
      </trkpt>
      <trkpt lat="46.917088" lon="10.524135">
        <time>1970-01-01T00:00:00+00:00</time>
        <ele>2003.0</ele>
      </trkpt>
      <trkpt lat="46.917052" lon="10.524129">
        <time>1970-01-01T00:00:00+00:00</time>
        <ele>2004.0</ele>
      </trkpt>
      <trkpt lat="46.916965" lon="10.524165">
        <time>1970-01-01T00:00:00+00:00</time>
        <ele>2006.0</ele>
      </trkpt>
      <trkpt lat="46.916855" lon="10.524152">
        <time>1970-01-01T00:00:00+00:00</time>
        <ele>2008.0</ele>
      </trkpt>
      <trkpt lat="46.916744" lon="10.524264">
        <time>1970-01-01T00:00:00+00:00</time>
        <ele>2012.0</ele>
      </trkpt>
      <trkpt lat="46.916629" lon="10.524311">
        <time>1970-01-01T00:00:00+00:00</time>
        <ele>2015.0</ele>
      </trkpt>
      <trkpt lat="46.916475" lon="10.524333">
        <time>1970-01-01T00:00:00+00:00</time>
        <ele>2019.0</ele>
      </trkpt>
      <trkpt lat="46.916445" lon="10.524318">
        <time>1970-01-01T00:00:00+00:00</time>
        <ele>2019.0</ele>
      </trkpt>
      <trkpt lat="46.916288" lon="10.524413">
        <time>1970-01-01T00:00:00+00:00</time>
        <ele>2024.0</ele>
      </trkpt>
      <trkpt lat="46.916208" lon="10.524487">
        <time>1970-01-01T00:00:00+00:00</time>
        <ele>2028.0</ele>
      </trkpt>
      <trkpt lat="46.916094" lon="10.524515">
        <time>1970-01-01T00:00:00+00:00</time>
        <ele>2033.0</ele>
      </trkpt>
      <trkpt lat="46.916029" lon="10.524501">
        <time>1970-01-01T00:00:00+00:00</time>
        <ele>2035.0</ele>
      </trkpt>
      <trkpt lat="46.915225" lon="10.52451">
        <time>1970-01-01T00:00:00+00:00</time>
        <ele>2054.0</ele>
      </trkpt>
      <trkpt lat="46.914557" lon="10.524811">
        <time>1970-01-01T00:00:00+00:00</time>
        <ele>2069.0</ele>
      </trkpt>
      <trkpt lat="46.914329" lon="10.524821">
        <time>1970-01-01T00:00:00+00:00</time>
        <ele>2073.0</ele>
      </trkpt>
      <trkpt lat="46.914266" lon="10.524871">
        <time>1970-01-01T00:00:00+00:00</time>
        <ele>2076.0</ele>
      </trkpt>
      <trkpt lat="46.914201" lon="10.524863">
        <time>1970-01-01T00:00:00+00:00</time>
        <ele>2076.0</ele>
      </trkpt>
      <trkpt lat="46.914131" lon="10.524797">
        <time>1970-01-01T00:00:00+00:00</time>
        <ele>2074.0</ele>
      </trkpt>
      <trkpt lat="46.914063" lon="10.524797">
        <time>1970-01-01T00:00:00+00:00</time>
        <ele>2074.0</ele>
      </trkpt>
      <trkpt lat="46.913961" lon="10.524835">
        <time>1970-01-01T00:00:00+00:00</time>
        <ele>2077.0</ele>
      </trkpt>
      <trkpt lat="46.913838" lon="10.524779">
        <time>1970-01-01T00:00:00+00:00</time>
        <ele>2075.0</ele>
      </trkpt>
      <trkpt lat="46.913182" lon="10.524846">
        <time>1970-01-01T00:00:00+00:00</time>
        <ele>2092.0</ele>
      </trkpt>
      <trkpt lat="46.913093" lon="10.524806">
        <time>1970-01-01T00:00:00+00:00</time>
        <ele>2096.0</ele>
      </trkpt>
      <trkpt lat="46.912994" lon="10.52492">
        <time>1970-01-01T00:00:00+00:00</time>
        <ele>2104.0</ele>
      </trkpt>
      <trkpt lat="46.912934" lon="10.524915">
        <time>1970-01-01T00:00:00+00:00</time>
        <ele>2107.0</ele>
      </trkpt>
      <trkpt lat="46.912944" lon="10.524698">
        <time>1970-01-01T00:00:00+00:00</time>
        <ele>2102.0</ele>
      </trkpt>
      <trkpt lat="46.912791" lon="10.524361">
        <time>1970-01-01T00:00:00+00:00</time>
        <ele>2112.0</ele>
      </trkpt>
      <trkpt lat="46.912723" lon="10.524004">
        <time>1970-01-01T00:00:00+00:00</time>
        <ele>2117.0</ele>
      </trkpt>
      <trkpt lat="46.912462" lon="10.52325">
        <time>1970-01-01T00:00:00+00:00</time>
        <ele>2139.0</ele>
      </trkpt>
      <trkpt lat="46.911941" lon="10.521542">
        <time>1970-01-01T00:00:00+00:00</time>
        <ele>2163.0</ele>
      </trkpt>
      <trkpt lat="46.911911" lon="10.521492">
        <time>1970-01-01T00:00:00+00:00</time>
        <ele>2165.0</ele>
      </trkpt>
      <trkpt lat="46.911883" lon="10.521373">
        <time>1970-01-01T00:00:00+00:00</time>
        <ele>2165.0</ele>
      </trkpt>
      <trkpt lat="46.91185" lon="10.521326">
        <time>1970-01-01T00:00:00+00:00</time>
        <ele>2166.0</ele>
      </trkpt>
      <trkpt lat="46.911825" lon="10.52124">
        <time>1970-01-01T00:00:00+00:00</time>
        <ele>2167.0</ele>
      </trkpt>
      <trkpt lat="46.911209" lon="10.520677">
        <time>1970-01-01T00:00:00+00:00</time>
        <ele>2185.0</ele>
      </trkpt>
      <trkpt lat="46.911162" lon="10.520576">
        <time>1970-01-01T00:00:00+00:00</time>
        <ele>2186.0</ele>
      </trkpt>
      <trkpt lat="46.911087" lon="10.520519">
        <time>1970-01-01T00:00:00+00:00</time>
        <ele>2187.0</ele>
      </trkpt>
      <trkpt lat="46.911001" lon="10.520534">
        <time>1970-01-01T00:00:00+00:00</time>
        <ele>2190.0</ele>
      </trkpt>
      <trkpt lat="46.910808" lon="10.520473">
        <time>1970-01-01T00:00:00+00:00</time>
        <ele>2196.0</ele>
      </trkpt>
      <trkpt lat="46.910636" lon="10.52039">
        <time>1970-01-01T00:00:00+00:00</time>
        <ele>2199.0</ele>
      </trkpt>
      <trkpt lat="46.910604" lon="10.520338">
        <time>1970-01-01T00:00:00+00:00</time>
        <ele>2199.0</ele>
      </trkpt>
      <trkpt lat="46.910529" lon="10.520277">
        <time>1970-01-01T00:00:00+00:00</time>
        <ele>2198.0</ele>
      </trkpt>
      <trkpt lat="46.910422" lon="10.520308">
        <time>1970-01-01T00:00:00+00:00</time>
        <ele>2200.0</ele>
      </trkpt>
      <trkpt lat="46.910422" lon="10.520308">
        <time>1970-01-01T00:00:00+00:00</time>
        <ele>2200.0</ele>
      </trkpt>
      <trkpt lat="46.910288" lon="10.520844">
        <time>1970-01-01T00:00:00+00:00</time>
        <ele>2207.0</ele>
      </trkpt>
      <trkpt lat="46.910075" lon="10.521037">
        <time>1970-01-01T00:00:00+00:00</time>
        <ele>2206.0</ele>
      </trkpt>
      <trkpt lat="46.909931" lon="10.521138">
        <time>1970-01-01T00:00:00+00:00</time>
        <ele>2205.0</ele>
      </trkpt>
      <trkpt lat="46.909883" lon="10.521211">
        <time>1970-01-01T00:00:00+00:00</time>
        <ele>2207.0</ele>
      </trkpt>
      <trkpt lat="46.909706" lon="10.521391">
        <time>1970-01-01T00:00:00+00:00</time>
        <ele>2209.0</ele>
      </trkpt>
      <trkpt lat="46.909503" lon="10.521484">
        <time>1970-01-01T00:00:00+00:00</time>
        <ele>2206.0</ele>
      </trkpt>
      <trkpt lat="46.909452" lon="10.521532">
        <time>1970-01-01T00:00:00+00:00</time>
        <ele>2206.0</ele>
      </trkpt>
      <trkpt lat="46.909383" lon="10.521546">
        <time>1970-01-01T00:00:00+00:00</time>
        <ele>2205.0</ele>
      </trkpt>
      <trkpt lat="46.90881" lon="10.521975">
        <time>1970-01-01T00:00:00+00:00</time>
        <ele>2213.0</ele>
      </trkpt>
      <trkpt lat="46.908163" lon="10.522139">
        <time>1970-01-01T00:00:00+00:00</time>
        <ele>2220.0</ele>
      </trkpt>
      <trkpt lat="46.90796" lon="10.522226">
        <time>1970-01-01T00:00:00+00:00</time>
        <ele>2224.0</ele>
      </trkpt>
      <trkpt lat="46.907612" lon="10.522139">
        <time>1970-01-01T00:00:00+00:00</time>
        <ele>2226.0</ele>
      </trkpt>
      <trkpt lat="46.907205" lon="10.521901">
        <time>1970-01-01T00:00:00+00:00</time>
        <ele>2225.0</ele>
      </trkpt>
      <trkpt lat="46.90676" lon="10.521524">
        <time>1970-01-01T00:00:00+00:00</time>
        <ele>2220.0</ele>
      </trkpt>
      <trkpt lat="46.906548" lon="10.521611">
        <time>1970-01-01T00:00:00+00:00</time>
        <ele>2220.0</ele>
      </trkpt>
      <trkpt lat="46.906287" lon="10.521543">
        <time>1970-01-01T00:00:00+00:00</time>
        <ele>2215.0</ele>
      </trkpt>
      <trkpt lat="46.906215" lon="10.521864">
        <time>1970-01-01T00:00:00+00:00</time>
        <ele>2211.0</ele>
      </trkpt>
      <trkpt lat="46.906171" lon="10.52222">
        <time>1970-01-01T00:00:00+00:00</time>
        <ele>2209.0</ele>
      </trkpt>
      <trkpt lat="46.906031" lon="10.522491">
        <time>1970-01-01T00:00:00+00:00</time>
        <ele>2204.0</ele>
      </trkpt>
      <trkpt lat="46.906006" lon="10.522828">
        <time>1970-01-01T00:00:00+00:00</time>
        <ele>2203.0</ele>
      </trkpt>
      <trkpt lat="46.905825" lon="10.523254">
        <time>1970-01-01T00:00:00+00:00</time>
        <ele>2194.0</ele>
      </trkpt>
      <trkpt lat="46.905623" lon="10.524289">
        <time>1970-01-01T00:00:00+00:00</time>
        <ele>2184.0</ele>
      </trkpt>
      <trkpt lat="46.905595" lon="10.524758">
        <time>1970-01-01T00:00:00+00:00</time>
        <ele>2182.0</ele>
      </trkpt>
      <trkpt lat="46.905666" lon="10.525119">
        <time>1970-01-01T00:00:00+00:00</time>
        <ele>2182.0</ele>
      </trkpt>
      <trkpt lat="46.90565" lon="10.525261">
        <time>1970-01-01T00:00:00+00:00</time>
        <ele>2179.0</ele>
      </trkpt>
      <trkpt lat="46.905731" lon="10.525932">
        <time>1970-01-01T00:00:00+00:00</time>
        <ele>2177.0</ele>
      </trkpt>
      <trkpt lat="46.905683" lon="10.526124">
        <time>1970-01-01T00:00:00+00:00</time>
        <ele>2174.0</ele>
      </trkpt>
      <trkpt lat="46.905694" lon="10.526256">
        <time>1970-01-01T00:00:00+00:00</time>
        <ele>2173.0</ele>
      </trkpt>
      <trkpt lat="46.905798" lon="10.526411">
        <time>1970-01-01T00:00:00+00:00</time>
        <ele>2175.0</ele>
      </trkpt>
      <trkpt lat="46.905832" lon="10.526522">
        <time>1970-01-01T00:00:00+00:00</time>
        <ele>2176.0</ele>
      </trkpt>
      <trkpt lat="46.905726" lon="10.527166">
        <time>1970-01-01T00:00:00+00:00</time>
        <ele>2166.0</ele>
      </trkpt>
      <trkpt lat="46.905768" lon="10.527696">
        <time>1970-01-01T00:00:00+00:00</time>
        <ele>2161.0</ele>
      </trkpt>
      <trkpt lat="46.905837" lon="10.527754">
        <time>1970-01-01T00:00:00+00:00</time>
        <ele>2163.0</ele>
      </trkpt>
      <trkpt lat="46.905913" lon="10.52786">
        <time>1970-01-01T00:00:00+00:00</time>
        <ele>2166.0</ele>
      </trkpt>
      <trkpt lat="46.90589" lon="10.528253">
        <time>1970-01-01T00:00:00+00:00</time>
        <ele>2159.0</ele>
      </trkpt>
      <trkpt lat="46.905935" lon="10.528495">
        <time>1970-01-01T00:00:00+00:00</time>
        <ele>2161.0</ele>
      </trkpt>
      <trkpt lat="46.905918" lon="10.528732">
        <time>1970-01-01T00:00:00+00:00</time>
        <ele>2159.0</ele>
      </trkpt>
      <trkpt lat="46.90583" lon="10.529059">
        <time>1970-01-01T00:00:00+00:00</time>
        <ele>2155.0</ele>
      </trkpt>
      <trkpt lat="46.905722" lon="10.529693">
        <time>1970-01-01T00:00:00+00:00</time>
        <ele>2161.0</ele>
      </trkpt>
      <trkpt lat="46.905547" lon="10.530108">
        <time>1970-01-01T00:00:00+00:00</time>
        <ele>2163.0</ele>
      </trkpt>
      <trkpt lat="46.905535" lon="10.530375">
        <time>1970-01-01T00:00:00+00:00</time>
        <ele>2165.0</ele>
      </trkpt>
      <trkpt lat="46.905567" lon="10.530722">
        <time>1970-01-01T00:00:00+00:00</time>
        <ele>2168.0</ele>
      </trkpt>
      <trkpt lat="46.905473" lon="10.530835">
        <time>1970-01-01T00:00:00+00:00</time>
        <ele>2163.0</ele>
      </trkpt>
      <trkpt lat="46.905437" lon="10.530948">
        <time>1970-01-01T00:00:00+00:00</time>
        <ele>2161.0</ele>
      </trkpt>
      <trkpt lat="46.90553" lon="10.531163">
        <time>1970-01-01T00:00:00+00:00</time>
        <ele>2166.0</ele>
      </trkpt>
      <trkpt lat="46.905612" lon="10.531491">
        <time>1970-01-01T00:00:00+00:00</time>
        <ele>2170.0</ele>
      </trkpt>
      <trkpt lat="46.905543" lon="10.531881">
        <time>1970-01-01T00:00:00+00:00</time>
        <ele>2169.0</ele>
      </trkpt>
      <trkpt lat="46.905706" lon="10.533287">
        <time>1970-01-01T00:00:00+00:00</time>
        <ele>2179.0</ele>
      </trkpt>
      <trkpt lat="46.905668" lon="10.53364">
        <time>1970-01-01T00:00:00+00:00</time>
        <ele>2179.0</ele>
      </trkpt>
      <trkpt lat="46.905552" lon="10.53393">
        <time>1970-01-01T00:00:00+00:00</time>
        <ele>2174.0</ele>
      </trkpt>
      <trkpt lat="46.905533" lon="10.534229">
        <time>1970-01-01T00:00:00+00:00</time>
        <ele>2174.0</ele>
      </trkpt>
      <trkpt lat="46.905552" lon="10.534432">
        <time>1970-01-01T00:00:00+00:00</time>
        <ele>2176.0</ele>
      </trkpt>
      <trkpt lat="46.905533" lon="10.534712">
        <time>1970-01-01T00:00:00+00:00</time>
        <ele>2175.0</ele>
      </trkpt>
      <trkpt lat="46.905551" lon="10.535441">
        <time>1970-01-01T00:00:00+00:00</time>
        <ele>2176.0</ele>
      </trkpt>
      <trkpt lat="46.905608" lon="10.53568">
        <time>1970-01-01T00:00:00+00:00</time>
        <ele>2182.0</ele>
      </trkpt>
      <trkpt lat="46.905413" lon="10.536134">
        <time>1970-01-01T00:00:00+00:00</time>
        <ele>2175.0</ele>
      </trkpt>
      <trkpt lat="46.905269" lon="10.536241">
        <time>1970-01-01T00:00:00+00:00</time>
        <ele>2164.0</ele>
      </trkpt>
      <trkpt lat="46.905221" lon="10.536808">
        <time>1970-01-01T00:00:00+00:00</time>
        <ele>2163.0</ele>
      </trkpt>
      <trkpt lat="46.905106" lon="10.537184">
        <time>1970-01-01T00:00:00+00:00</time>
        <ele>2162.0</ele>
      </trkpt>
      <trkpt lat="46.904858" lon="10.53715">
        <time>1970-01-01T00:00:00+00:00</time>
        <ele>2153.0</ele>
      </trkpt>
      <trkpt lat="46.904604" lon="10.536954">
        <time>1970-01-01T00:00:00+00:00</time>
        <ele>2145.0</ele>
      </trkpt>
      <trkpt lat="46.904572" lon="10.536707">
        <time>1970-01-01T00:00:00+00:00</time>
        <ele>2140.0</ele>
      </trkpt>
      <trkpt lat="46.904517" lon="10.536279">
        <time>1970-01-01T00:00:00+00:00</time>
        <ele>2132.0</ele>
      </trkpt>
      <trkpt lat="46.904509" lon="10.535765">
        <time>1970-01-01T00:00:00+00:00</time>
        <ele>2120.0</ele>
      </trkpt>
      <trkpt lat="46.904331" lon="10.535252">
        <time>1970-01-01T00:00:00+00:00</time>
        <ele>2108.0</ele>
      </trkpt>
      <trkpt lat="46.904245" lon="10.535213">
        <time>1970-01-01T00:00:00+00:00</time>
        <ele>2107.0</ele>
      </trkpt>
      <trkpt lat="46.903997" lon="10.533978">
        <time>1970-01-01T00:00:00+00:00</time>
        <ele>2079.0</ele>
      </trkpt>
      <trkpt lat="46.903794" lon="10.533572">
        <time>1970-01-01T00:00:00+00:00</time>
        <ele>2070.0</ele>
      </trkpt>
      <trkpt lat="46.90348" lon="10.533006">
        <time>1970-01-01T00:00:00+00:00</time>
        <ele>2060.0</ele>
      </trkpt>
      <trkpt lat="46.903127" lon="10.532133">
        <time>1970-01-01T00:00:00+00:00</time>
        <ele>2040.0</ele>
      </trkpt>
      <trkpt lat="46.903002" lon="10.531881">
        <time>1970-01-01T00:00:00+00:00</time>
        <ele>2036.0</ele>
      </trkpt>
      <trkpt lat="46.902808" lon="10.531176">
        <time>1970-01-01T00:00:00+00:00</time>
        <ele>2023.0</ele>
      </trkpt>
      <trkpt lat="46.902697" lon="10.530966">
        <time>1970-01-01T00:00:00+00:00</time>
        <ele>2018.0</ele>
      </trkpt>
      <trkpt lat="46.902696" lon="10.530879">
        <time>1970-01-01T00:00:00+00:00</time>
        <ele>2015.0</ele>
      </trkpt>
      <trkpt lat="46.902666" lon="10.530782">
        <time>1970-01-01T00:00:00+00:00</time>
        <ele>2012.0</ele>
      </trkpt>
      <trkpt lat="46.90265" lon="10.530396">
        <time>1970-01-01T00:00:00+00:00</time>
        <ele>2001.0</ele>
      </trkpt>
      <trkpt lat="46.902665" lon="10.530245">
        <time>1970-01-01T00:00:00+00:00</time>
        <ele>1997.0</ele>
      </trkpt>
      <trkpt lat="46.90263" lon="10.530051">
        <time>1970-01-01T00:00:00+00:00</time>
        <ele>1996.0</ele>
      </trkpt>
      <trkpt lat="46.902602" lon="10.529985">
        <time>1970-01-01T00:00:00+00:00</time>
        <ele>1995.0</ele>
      </trkpt>
      <trkpt lat="46.902435" lon="10.529796">
        <time>1970-01-01T00:00:00+00:00</time>
        <ele>1992.0</ele>
      </trkpt>
      <trkpt lat="46.902392" lon="10.529613">
        <time>1970-01-01T00:00:00+00:00</time>
        <ele>1990.0</ele>
      </trkpt>
      <trkpt lat="46.902256" lon="10.529371">
        <time>1970-01-01T00:00:00+00:00</time>
        <ele>1981.0</ele>
      </trkpt>
      <trkpt lat="46.902121" lon="10.529202">
        <time>1970-01-01T00:00:00+00:00</time>
        <ele>1975.0</ele>
      </trkpt>
      <trkpt lat="46.902099" lon="10.529088">
        <time>1970-01-01T00:00:00+00:00</time>
        <ele>1975.0</ele>
      </trkpt>
      <trkpt lat="46.901836" lon="10.528844">
        <time>1970-01-01T00:00:00+00:00</time>
        <ele>1968.0</ele>
      </trkpt>
      <trkpt lat="46.901729" lon="10.528778">
        <time>1970-01-01T00:00:00+00:00</time>
        <ele>1964.0</ele>
      </trkpt>
      <trkpt lat="46.901584" lon="10.52844">
        <time>1970-01-01T00:00:00+00:00</time>
        <ele>1955.0</ele>
      </trkpt>
      <trkpt lat="46.901527" lon="10.528344">
        <time>1970-01-01T00:00:00+00:00</time>
        <ele>1953.0</ele>
      </trkpt>
      <trkpt lat="46.901468" lon="10.527888">
        <time>1970-01-01T00:00:00+00:00</time>
        <ele>1949.0</ele>
      </trkpt>
      <trkpt lat="46.901433" lon="10.527825">
        <time>1970-01-01T00:00:00+00:00</time>
        <ele>1948.0</ele>
      </trkpt>
      <trkpt lat="46.901384" lon="10.527635">
        <time>1970-01-01T00:00:00+00:00</time>
        <ele>1947.0</ele>
      </trkpt>
      <trkpt lat="46.901209" lon="10.527217">
        <time>1970-01-01T00:00:00+00:00</time>
        <ele>1937.0</ele>
      </trkpt>
      <trkpt lat="46.901103" lon="10.526799">
        <time>1970-01-01T00:00:00+00:00</time>
        <ele>1932.0</ele>
      </trkpt>
      <trkpt lat="46.901175" lon="10.52649">
        <time>1970-01-01T00:00:00+00:00</time>
        <ele>1935.0</ele>
      </trkpt>
      <trkpt lat="46.901182" lon="10.526355">
        <time>1970-01-01T00:00:00+00:00</time>
        <ele>1935.0</ele>
      </trkpt>
      <trkpt lat="46.901171" lon="10.526234">
        <time>1970-01-01T00:00:00+00:00</time>
        <ele>1934.0</ele>
      </trkpt>
      <trkpt lat="46.901134" lon="10.526146">
        <time>1970-01-01T00:00:00+00:00</time>
        <ele>1933.0</ele>
      </trkpt>
      <trkpt lat="46.900955" lon="10.525898">
        <time>1970-01-01T00:00:00+00:00</time>
        <ele>1926.0</ele>
      </trkpt>
      <trkpt lat="46.900888" lon="10.525775">
        <time>1970-01-01T00:00:00+00:00</time>
        <ele>1924.0</ele>
      </trkpt>
      <trkpt lat="46.900817" lon="10.525549">
        <time>1970-01-01T00:00:00+00:00</time>
        <ele>1923.0</ele>
      </trkpt>
      <trkpt lat="46.900763" lon="10.525226">
        <time>1970-01-01T00:00:00+00:00</time>
        <ele>1923.0</ele>
      </trkpt>
      <trkpt lat="46.900649" lon="10.524839">
        <time>1970-01-01T00:00:00+00:00</time>
        <ele>1918.0</ele>
      </trkpt>
      <trkpt lat="46.900625" lon="10.524862">
        <time>1970-01-01T00:00:00+00:00</time>
        <ele>1916.0</ele>
      </trkpt>
      <trkpt lat="46.900595" lon="10.524982">
        <time>1970-01-01T00:00:00+00:00</time>
        <ele>1914.0</ele>
      </trkpt>
      <trkpt lat="46.900469" lon="10.525126">
        <time>1970-01-01T00:00:00+00:00</time>
        <ele>1905.0</ele>
      </trkpt>
      <trkpt lat="46.900447" lon="10.525208">
        <time>1970-01-01T00:00:00+00:00</time>
        <ele>1904.0</ele>
      </trkpt>
      <trkpt lat="46.900397" lon="10.525809">
        <time>1970-01-01T00:00:00+00:00</time>
        <ele>1897.0</ele>
      </trkpt>
      <trkpt lat="46.900417" lon="10.526005">
        <time>1970-01-01T00:00:00+00:00</time>
        <ele>1897.0</ele>
      </trkpt>
      <trkpt lat="46.900369" lon="10.526009">
        <time>1970-01-01T00:00:00+00:00</time>
        <ele>1895.0</ele>
      </trkpt>
      <trkpt lat="46.900327" lon="10.525954">
        <time>1970-01-01T00:00:00+00:00</time>
        <ele>1893.0</ele>
      </trkpt>
      <trkpt lat="46.900245" lon="10.525897">
        <time>1970-01-01T00:00:00+00:00</time>
        <ele>1889.0</ele>
      </trkpt>
      <trkpt lat="46.900145" lon="10.52571">
        <time>1970-01-01T00:00:00+00:00</time>
        <ele>1885.0</ele>
      </trkpt>
      <trkpt lat="46.900008" lon="10.525844">
        <time>1970-01-01T00:00:00+00:00</time>
        <ele>1880.0</ele>
      </trkpt>
      <trkpt lat="46.899973" lon="10.525846">
        <time>1970-01-01T00:00:00+00:00</time>
        <ele>1879.0</ele>
      </trkpt>
      <trkpt lat="46.899934" lon="10.525504">
        <time>1970-01-01T00:00:00+00:00</time>
        <ele>1872.0</ele>
      </trkpt>
      <trkpt lat="46.899857" lon="10.5254">
        <time>1970-01-01T00:00:00+00:00</time>
        <ele>1866.0</ele>
      </trkpt>
      <trkpt lat="46.899829" lon="10.525194">
        <time>1970-01-01T00:00:00+00:00</time>
        <ele>1865.0</ele>
      </trkpt>
      <trkpt lat="46.899714" lon="10.52495">
        <time>1970-01-01T00:00:00+00:00</time>
        <ele>1858.0</ele>
      </trkpt>
      <trkpt lat="46.899568" lon="10.524785">
        <time>1970-01-01T00:00:00+00:00</time>
        <ele>1850.0</ele>
      </trkpt>
      <trkpt lat="46.899495" lon="10.524637">
        <time>1970-01-01T00:00:00+00:00</time>
        <ele>1846.0</ele>
      </trkpt>
      <trkpt lat="46.899227" lon="10.52427">
        <time>1970-01-01T00:00:00+00:00</time>
        <ele>1834.0</ele>
      </trkpt>
      <trkpt lat="46.89919" lon="10.523966">
        <time>1970-01-01T00:00:00+00:00</time>
        <ele>1830.0</ele>
      </trkpt>
      <trkpt lat="46.89912" lon="10.523807">
        <time>1970-01-01T00:00:00+00:00</time>
        <ele>1826.0</ele>
      </trkpt>
      <trkpt lat="46.899055" lon="10.523716">
        <time>1970-01-01T00:00:00+00:00</time>
        <ele>1822.0</ele>
      </trkpt>
      <trkpt lat="46.899031" lon="10.523586">
        <time>1970-01-01T00:00:00+00:00</time>
        <ele>1822.0</ele>
      </trkpt>
      <trkpt lat="46.89887" lon="10.523222">
        <time>1970-01-01T00:00:00+00:00</time>
        <ele>1814.0</ele>
      </trkpt>
      <trkpt lat="46.898787" lon="10.522944">
        <time>1970-01-01T00:00:00+00:00</time>
        <ele>1809.0</ele>
      </trkpt>
      <trkpt lat="46.898718" lon="10.522829">
        <time>1970-01-01T00:00:00+00:00</time>
        <ele>1805.0</ele>
      </trkpt>
      <trkpt lat="46.898623" lon="10.522513">
        <time>1970-01-01T00:00:00+00:00</time>
        <ele>1801.0</ele>
      </trkpt>
      <trkpt lat="46.898482" lon="10.522299">
        <time>1970-01-01T00:00:00+00:00</time>
        <ele>1795.0</ele>
      </trkpt>
      <trkpt lat="46.898316" lon="10.521977">
        <time>1970-01-01T00:00:00+00:00</time>
        <ele>1793.0</ele>
      </trkpt>
      <trkpt lat="46.898187" lon="10.521682">
        <time>1970-01-01T00:00:00+00:00</time>
        <ele>1790.0</ele>
      </trkpt>
      <trkpt lat="46.897962" lon="10.52123">
        <time>1970-01-01T00:00:00+00:00</time>
        <ele>1783.0</ele>
      </trkpt>
      <trkpt lat="46.897901" lon="10.521055">
        <time>1970-01-01T00:00:00+00:00</time>
        <ele>1781.0</ele>
      </trkpt>
      <trkpt lat="46.89779" lon="10.52065">
        <time>1970-01-01T00:00:00+00:00</time>
        <ele>1778.0</ele>
      </trkpt>
      <trkpt lat="46.89772" lon="10.520254">
        <time>1970-01-01T00:00:00+00:00</time>
        <ele>1779.0</ele>
      </trkpt>
      <trkpt lat="46.897596" lon="10.519746">
        <time>1970-01-01T00:00:00+00:00</time>
        <ele>1775.0</ele>
      </trkpt>
      <trkpt lat="46.89755" lon="10.519438">
        <time>1970-01-01T00:00:00+00:00</time>
        <ele>1776.0</ele>
      </trkpt>
      <trkpt lat="46.897527" lon="10.519365">
        <time>1970-01-01T00:00:00+00:00</time>
        <ele>1775.0</ele>
      </trkpt>
      <trkpt lat="46.897441" lon="10.519572">
        <time>1970-01-01T00:00:00+00:00</time>
        <ele>1767.0</ele>
      </trkpt>
      <trkpt lat="46.89727" lon="10.519345">
        <time>1970-01-01T00:00:00+00:00</time>
        <ele>1762.0</ele>
      </trkpt>
      <trkpt lat="46.896738" lon="10.518773">
        <time>1970-01-01T00:00:00+00:00</time>
        <ele>1742.0</ele>
      </trkpt>
      <trkpt lat="46.896389" lon="10.518204">
        <time>1970-01-01T00:00:00+00:00</time>
        <ele>1737.0</ele>
      </trkpt>
      <trkpt lat="46.896096" lon="10.517845">
        <time>1970-01-01T00:00:00+00:00</time>
        <ele>1726.0</ele>
      </trkpt>
      <trkpt lat="46.895359" lon="10.516868">
        <time>1970-01-01T00:00:00+00:00</time>
        <ele>1709.0</ele>
      </trkpt>
      <trkpt lat="46.895194" lon="10.516589">
        <time>1970-01-01T00:00:00+00:00</time>
        <ele>1702.0</ele>
      </trkpt>
      <trkpt lat="46.89484" lon="10.51567">
        <time>1970-01-01T00:00:00+00:00</time>
        <ele>1689.0</ele>
      </trkpt>
      <trkpt lat="46.894832" lon="10.515541">
        <time>1970-01-01T00:00:00+00:00</time>
        <ele>1688.0</ele>
      </trkpt>
      <trkpt lat="46.895095" lon="10.514745">
        <time>1970-01-01T00:00:00+00:00</time>
        <ele>1674.0</ele>
      </trkpt>
      <trkpt lat="46.895228" lon="10.514431">
        <time>1970-01-01T00:00:00+00:00</time>
        <ele>1665.0</ele>
      </trkpt>
      <trkpt lat="46.895466" lon="10.514114">
        <time>1970-01-01T00:00:00+00:00</time>
        <ele>1663.0</ele>
      </trkpt>
      <trkpt lat="46.895535" lon="10.51395">
        <time>1970-01-01T00:00:00+00:00</time>
        <ele>1660.0</ele>
      </trkpt>
      <trkpt lat="46.895539" lon="10.513655">
        <time>1970-01-01T00:00:00+00:00</time>
        <ele>1648.0</ele>
      </trkpt>
      <trkpt lat="46.89559" lon="10.513574">
        <time>1970-01-01T00:00:00+00:00</time>
        <ele>1649.0</ele>
      </trkpt>
      <trkpt lat="46.895714" lon="10.513443">
        <time>1970-01-01T00:00:00+00:00</time>
        <ele>1649.0</ele>
      </trkpt>
      <trkpt lat="46.895712" lon="10.513376">
        <time>1970-01-01T00:00:00+00:00</time>
        <ele>1645.0</ele>
      </trkpt>
      <trkpt lat="46.895743" lon="10.513326">
        <time>1970-01-01T00:00:00+00:00</time>
        <ele>1643.0</ele>
      </trkpt>
      <trkpt lat="46.895814" lon="10.513298">
        <time>1970-01-01T00:00:00+00:00</time>
        <ele>1642.0</ele>
      </trkpt>
      <trkpt lat="46.895853" lon="10.513154">
        <time>1970-01-01T00:00:00+00:00</time>
        <ele>1637.0</ele>
      </trkpt>
      <trkpt lat="46.895902" lon="10.512732">
        <time>1970-01-01T00:00:00+00:00</time>
        <ele>1625.0</ele>
      </trkpt>
      <trkpt lat="46.895895" lon="10.512591">
        <time>1970-01-01T00:00:00+00:00</time>
        <ele>1621.0</ele>
      </trkpt>
      <trkpt lat="46.895836" lon="10.512367">
        <time>1970-01-01T00:00:00+00:00</time>
        <ele>1614.0</ele>
      </trkpt>
      <trkpt lat="46.895815" lon="10.512162">
        <time>1970-01-01T00:00:00+00:00</time>
        <ele>1609.0</ele>
      </trkpt>
      <trkpt lat="46.895855" lon="10.511953">
        <time>1970-01-01T00:00:00+00:00</time>
        <ele>1606.0</ele>
      </trkpt>
      <trkpt lat="46.895855" lon="10.511729">
        <time>1970-01-01T00:00:00+00:00</time>
        <ele>1598.0</ele>
      </trkpt>
      <trkpt lat="46.895911" lon="10.511489">
        <time>1970-01-01T00:00:00+00:00</time>
        <ele>1590.0</ele>
      </trkpt>
      <trkpt lat="46.895898" lon="10.511401">
        <time>1970-01-01T00:00:00+00:00</time>
        <ele>1586.0</ele>
      </trkpt>
      <trkpt lat="46.895906" lon="10.511357">
        <time>1970-01-01T00:00:00+00:00</time>
        <ele>1585.0</ele>
      </trkpt>
      <trkpt lat="46.895811" lon="10.511239">
        <time>1970-01-01T00:00:00+00:00</time>
        <ele>1580.0</ele>
      </trkpt>
      <trkpt lat="46.895717" lon="10.511214">
        <time>1970-01-01T00:00:00+00:00</time>
        <ele>1576.0</ele>
      </trkpt>
      <trkpt lat="46.895689" lon="10.511186">
        <time>1970-01-01T00:00:00+00:00</time>
        <ele>1574.0</ele>
      </trkpt>
      <trkpt lat="46.895614" lon="10.511179">
        <time>1970-01-01T00:00:00+00:00</time>
        <ele>1572.0</ele>
      </trkpt>
      <trkpt lat="46.895568" lon="10.511101">
        <time>1970-01-01T00:00:00+00:00</time>
        <ele>1569.0</ele>
      </trkpt>
      <trkpt lat="46.895507" lon="10.511078">
        <time>1970-01-01T00:00:00+00:00</time>
        <ele>1566.0</ele>
      </trkpt>
      <trkpt lat="46.895484" lon="10.511037">
        <time>1970-01-01T00:00:00+00:00</time>
        <ele>1565.0</ele>
      </trkpt>
      <trkpt lat="46.895499" lon="10.51067">
        <time>1970-01-01T00:00:00+00:00</time>
        <ele>1555.0</ele>
      </trkpt>
      <trkpt lat="46.895436" lon="10.510517">
        <time>1970-01-01T00:00:00+00:00</time>
        <ele>1549.0</ele>
      </trkpt>
      <trkpt lat="46.895352" lon="10.510463">
        <time>1970-01-01T00:00:00+00:00</time>
        <ele>1545.0</ele>
      </trkpt>
      <trkpt lat="46.895247" lon="10.510327">
        <time>1970-01-01T00:00:00+00:00</time>
        <ele>1540.0</ele>
      </trkpt>
      <trkpt lat="46.89522" lon="10.510198">
        <time>1970-01-01T00:00:00+00:00</time>
        <ele>1537.0</ele>
      </trkpt>
      <trkpt lat="46.89521" lon="10.510134">
        <time>1970-01-01T00:00:00+00:00</time>
        <ele>1535.0</ele>
      </trkpt>
      <trkpt lat="46.895271" lon="10.509835">
        <time>1970-01-01T00:00:00+00:00</time>
        <ele>1530.0</ele>
      </trkpt>
      <trkpt lat="46.895254" lon="10.509787">
        <time>1970-01-01T00:00:00+00:00</time>
        <ele>1530.0</ele>
      </trkpt>
      <trkpt lat="46.89515" lon="10.509737">
        <time>1970-01-01T00:00:00+00:00</time>
        <ele>1529.0</ele>
      </trkpt>
      <trkpt lat="46.89511" lon="10.509765">
        <time>1970-01-01T00:00:00+00:00</time>
        <ele>1529.0</ele>
      </trkpt>
      <trkpt lat="46.89509" lon="10.509798">
        <time>1970-01-01T00:00:00+00:00</time>
        <ele>1529.0</ele>
      </trkpt>
      <trkpt lat="46.895011" lon="10.510104">
        <time>1970-01-01T00:00:00+00:00</time>
        <ele>1531.0</ele>
      </trkpt>
      <trkpt lat="46.894968" lon="10.510166">
        <time>1970-01-01T00:00:00+00:00</time>
        <ele>1531.0</ele>
      </trkpt>
      <trkpt lat="46.894886" lon="10.510155">
        <time>1970-01-01T00:00:00+00:00</time>
        <ele>1529.0</ele>
      </trkpt>
      <trkpt lat="46.894815" lon="10.510102">
        <time>1970-01-01T00:00:00+00:00</time>
        <ele>1526.0</ele>
      </trkpt>
      <trkpt lat="46.894576" lon="10.509876">
        <time>1970-01-01T00:00:00+00:00</time>
        <ele>1516.0</ele>
      </trkpt>
      <trkpt lat="46.89445" lon="10.509632">
        <time>1970-01-01T00:00:00+00:00</time>
        <ele>1507.0</ele>
      </trkpt>
      <trkpt lat="46.894388" lon="10.509342">
        <time>1970-01-01T00:00:00+00:00</time>
        <ele>1503.0</ele>
      </trkpt>
      <trkpt lat="46.894393" lon="10.509029">
        <time>1970-01-01T00:00:00+00:00</time>
        <ele>1503.0</ele>
      </trkpt>
      <trkpt lat="46.894261" lon="10.50886">
        <time>1970-01-01T00:00:00+00:00</time>
        <ele>1496.0</ele>
      </trkpt>
      <trkpt lat="46.894242" lon="10.508862">
        <time>1970-01-01T00:00:00+00:00</time>
        <ele>1495.0</ele>
      </trkpt>
      <trkpt lat="46.894216" lon="10.509163">
        <time>1970-01-01T00:00:00+00:00</time>
        <ele>1492.0</ele>
      </trkpt>
      <trkpt lat="46.894199" lon="10.509187">
        <time>1970-01-01T00:00:00+00:00</time>
        <ele>1491.0</ele>
      </trkpt>
      <trkpt lat="46.894148" lon="10.509422">
        <time>1970-01-01T00:00:00+00:00</time>
        <ele>1490.0</ele>
      </trkpt>
      <trkpt lat="46.894118" lon="10.509497">
        <time>1970-01-01T00:00:00+00:00</time>
        <ele>1490.0</ele>
      </trkpt>
      <trkpt lat="46.89401" lon="10.509633">
        <time>1970-01-01T00:00:00+00:00</time>
        <ele>1491.0</ele>
      </trkpt>
      <trkpt lat="46.893988" lon="10.509594">
        <time>1970-01-01T00:00:00+00:00</time>
        <ele>1491.0</ele>
      </trkpt>
      <trkpt lat="46.893976" lon="10.509506">
        <time>1970-01-01T00:00:00+00:00</time>
        <ele>1490.0</ele>
      </trkpt>
      <trkpt lat="46.89388" lon="10.509348">
        <time>1970-01-01T00:00:00+00:00</time>
        <ele>1492.0</ele>
      </trkpt>
      <trkpt lat="46.893735" lon="10.509159">
        <time>1970-01-01T00:00:00+00:00</time>
        <ele>1496.0</ele>
      </trkpt>
      <trkpt lat="46.893689" lon="10.509061">
        <time>1970-01-01T00:00:00+00:00</time>
        <ele>1495.0</ele>
      </trkpt>
      <trkpt lat="46.893547" lon="10.508639">
        <time>1970-01-01T00:00:00+00:00</time>
        <ele>1485.0</ele>
      </trkpt>
      <trkpt lat="46.8936" lon="10.508555">
        <time>1970-01-01T00:00:00+00:00</time>
        <ele>1482.0</ele>
      </trkpt>
      <trkpt lat="46.893651" lon="10.508421">
        <time>1970-01-01T00:00:00+00:00</time>
        <ele>1477.0</ele>
      </trkpt>
      <trkpt lat="46.893731" lon="10.508059">
        <time>1970-01-01T00:00:00+00:00</time>
        <ele>1471.0</ele>
      </trkpt>
      <trkpt lat="46.893776" lon="10.507947">
        <time>1970-01-01T00:00:00+00:00</time>
        <ele>1467.0</ele>
      </trkpt>
      <trkpt lat="46.89379" lon="10.507776">
        <time>1970-01-01T00:00:00+00:00</time>
        <ele>1462.0</ele>
      </trkpt>
      <trkpt lat="46.894057" lon="10.507365">
        <time>1970-01-01T00:00:00+00:00</time>
        <ele>1453.0</ele>
      </trkpt>
      <trkpt lat="46.894151" lon="10.507252">
        <time>1970-01-01T00:00:00+00:00</time>
        <ele>1451.0</ele>
      </trkpt>
      <trkpt lat="46.894231" lon="10.507063">
        <time>1970-01-01T00:00:00+00:00</time>
        <ele>1445.0</ele>
      </trkpt>
      <trkpt lat="46.894075" lon="10.506868">
        <time>1970-01-01T00:00:00+00:00</time>
        <ele>1436.0</ele>
      </trkpt>
      <trkpt lat="46.893953" lon="10.506764">
        <time>1970-01-01T00:00:00+00:00</time>
        <ele>1431.0</ele>
      </trkpt>
      <trkpt lat="46.893715" lon="10.506635">
        <time>1970-01-01T00:00:00+00:00</time>
        <ele>1425.0</ele>
      </trkpt>
      <trkpt lat="46.893565" lon="10.506598">
        <time>1970-01-01T00:00:00+00:00</time>
        <ele>1423.0</ele>
      </trkpt>
      <trkpt lat="46.893538" lon="10.50648">
        <time>1970-01-01T00:00:00+00:00</time>
        <ele>1421.0</ele>
      </trkpt>
      <trkpt lat="46.893549" lon="10.506072">
        <time>1970-01-01T00:00:00+00:00</time>
        <ele>1416.0</ele>
      </trkpt>
      <trkpt lat="46.893552" lon="10.505998">
        <time>1970-01-01T00:00:00+00:00</time>
        <ele>1415.0</ele>
      </trkpt>
      <trkpt lat="46.893562" lon="10.5056">
        <time>1970-01-01T00:00:00+00:00</time>
        <ele>1409.0</ele>
      </trkpt>
      <trkpt lat="46.893512" lon="10.505193">
        <time>1970-01-01T00:00:00+00:00</time>
        <ele>1404.0</ele>
      </trkpt>
      <trkpt lat="46.893491" lon="10.505089">
        <time>1970-01-01T00:00:00+00:00</time>
        <ele>1403.0</ele>
      </trkpt>
      <trkpt lat="46.893394" lon="10.504741">
        <time>1970-01-01T00:00:00+00:00</time>
        <ele>1400.0</ele>
      </trkpt>
      <trkpt lat="46.893382" lon="10.50464">
        <time>1970-01-01T00:00:00+00:00</time>
        <ele>1399.0</ele>
      </trkpt>
      <trkpt lat="46.89314" lon="10.504642">
        <time>1970-01-01T00:00:00+00:00</time>
        <ele>1398.0</ele>
      </trkpt>
      <trkpt lat="46.893083" lon="10.504642">
        <time>1970-01-01T00:00:00+00:00</time>
        <ele>1397.0</ele>
      </trkpt>
      <trkpt lat="46.89299" lon="10.504643">
        <time>1970-01-01T00:00:00+00:00</time>
        <ele>1398.0</ele>
      </trkpt>
      <trkpt lat="46.892896" lon="10.504681">
        <time>1970-01-01T00:00:00+00:00</time>
        <ele>1399.0</ele>
      </trkpt>
      <trkpt lat="46.892737" lon="10.504615">
        <time>1970-01-01T00:00:00+00:00</time>
        <ele>1399.0</ele>
      </trkpt>
      <trkpt lat="46.892744" lon="10.504516">
        <time>1970-01-01T00:00:00+00:00</time>
        <ele>1398.0</ele>
      </trkpt>
      <trkpt lat="46.892722" lon="10.504401">
        <time>1970-01-01T00:00:00+00:00</time>
        <ele>1397.0</ele>
      </trkpt>
      <trkpt lat="46.892567" lon="10.503991">
        <time>1970-01-01T00:00:00+00:00</time>
        <ele>1391.0</ele>
      </trkpt>
      <trkpt lat="46.892382" lon="10.503959">
        <time>1970-01-01T00:00:00+00:00</time>
        <ele>1390.0</ele>
      </trkpt>
      <trkpt lat="46.892204" lon="10.503814">
        <time>1970-01-01T00:00:00+00:00</time>
        <ele>1387.0</ele>
      </trkpt>
      <trkpt lat="46.892078" lon="10.503743">
        <time>1970-01-01T00:00:00+00:00</time>
        <ele>1385.0</ele>
      </trkpt>
      <trkpt lat="46.891866" lon="10.503682">
        <time>1970-01-01T00:00:00+00:00</time>
        <ele>1381.0</ele>
      </trkpt>
      <trkpt lat="46.891522" lon="10.503694">
        <time>1970-01-01T00:00:00+00:00</time>
        <ele>1376.0</ele>
      </trkpt>
      <trkpt lat="46.891455" lon="10.503676">
        <time>1970-01-01T00:00:00+00:00</time>
        <ele>1375.0</ele>
      </trkpt>
      <trkpt lat="46.891184" lon="10.503595">
        <time>1970-01-01T00:00:00+00:00</time>
        <ele>1373.0</ele>
      </trkpt>
      <trkpt lat="46.891107" lon="10.503595">
        <time>1970-01-01T00:00:00+00:00</time>
        <ele>1372.0</ele>
      </trkpt>
      <trkpt lat="46.891017" lon="10.503551">
        <time>1970-01-01T00:00:00+00:00</time>
        <ele>1371.0</ele>
      </trkpt>
      <trkpt lat="46.89082" lon="10.503431">
        <time>1970-01-01T00:00:00+00:00</time>
        <ele>1368.0</ele>
      </trkpt>
      <trkpt lat="46.890771" lon="10.503652">
        <time>1970-01-01T00:00:00+00:00</time>
        <ele>1368.0</ele>
      </trkpt>
    </trkseg>
  </trk>
</gpx>
